Location: ?????
(31.8571°N, 35.4603°E)
Time: 13:09:14
(UTC+00:00)

Daily predictions for brighter satellites

Satellite Brightness Start Highest point End
(mag) Time Altitude Azimuth Time Altitude Azimuth Time Altitude Azimuth
AQUARIUS 4.4 15:24:07 10° S 15:28:35 76° WSW 15:33:05 10° NNW
MOS 1 Rocket 3.4 15:26:53 10° NNE 15:31:02 47° E 15:35:19 10° S
Cosmos 1937 Rocket 3.7 15:26:26 10° SSW 15:31:44 86° WNW 15:37:05 10° NNE
CZ-4B R/B 1.2 15:32:02 10° NNE 15:35:17 83° ESE 15:38:25 10° S
Cosmos 1758 Rocket 3.9 15:31:23 10° SSE 15:35:36 44° E 15:39:52 10° NNE
Cosmos-2242 4.3 15:33:40 10° NNE 15:36:52 20° ENE 15:40:04 10° SE
Aureole 3 2.9 15:37:06 10° N 15:40:03 73° W 15:43:07 10° S
COSMO-SKYMED 1 2.5 15:36:08 10° NNE 15:40:29 83° ESE 15:44:49 10° S
H-2A R/B 3.0 15:39:31 10° ESE 15:43:26 24° ENE 15:47:27 10° NNE
Cosmos 2026 Rocket 3.9 15:39:48 10° S 15:45:52 73° E 15:52:04 10° N
Cosmos 1833 Rocket 3.5 15:43:05 10° N 15:47:50 27° ENE 15:52:33 10° ESE
Feng Yun 1-1 Rocket 4.2 15:43:27 10° SSE 15:48:47 62° ENE 15:54:17 10° N
USA 229 DEB 4.3 15:43:00 10° NNW 15:49:59 42° NE 15:57:14 10° ESE
USA 229 4.3 15:43:07 10° NNW 15:50:06 42° NE 15:57:20 10° ESE
Cosmos 1939 Rocket 2.9 15:46:15 10° SSE 15:50:21 88° WSW 15:54:26 10° NNW
Helios 1A Rocket 4.3 15:47:43 10° ESE 15:50:29 18° ENE 15:53:16 10° NNE
USA 276 2.6 15:48:50 10° SSW 15:51:53 44° SE 15:54:17 15° ENE
Lacrosse 5 3.4 15:47:39 10° NW 15:52:20 39° WSW 15:56:59 10° S
Cosmos 1602 Rocket 4.4 15:48:13 10° SSW 15:52:27 53° W 15:56:44 10° N
USA 290 3.7 15:50:32 10° NNE 15:52:47 18° ENE 15:55:01 10° ESE
YAOGAN 1 3.3 15:54:39 10° SE 15:58:27 31° ENE 16:02:16 10° N
Cosmos 1943 Rocket 3.8 15:57:18 10° SE 15:59:44 13° E 16:00:04 13° E
ATLAS 3B CENTAUR R/B 4.0 15:57:12 10° SSW 15:59:46 12° S 16:01:47 10° SE
Aureole 3 Rocket 3.0 15:56:42 10° N 16:00:17 56° E 16:05:02 10° SSE
Cosmos 2112 Rocket 4.1 15:56:44 10° NNW 16:01:57 82° WSW 16:07:06 10° SSE
Cosmos 1553 Rocket 4.4 15:56:12 10° NNE 16:02:06 39° E 16:07:52 10° SSE
IRS-1C Rocket 4.1 15:58:49 10° SSE 16:03:58 62° ENE 16:09:09 10° N
Milstar 3 4.2 15:54:27 10° SW 16:04:59 39° SSE 16:10:49 14° E
NOSS 3-1 (A) 4.4 15:58:16 10° NNW 16:05:54 48° NE 16:14:24 10° SE
COSMOS 2406 3.4 16:01:23 10° N 16:06:58 48° ENE 16:12:28 10° SE
Cosmos 2082 Rocket 3.3 16:03:08 10° N 16:07:26 22° ENE 16:09:39 17° E
Cosmos 1825 Rocket 3.4 16:03:08 10° S 16:07:29 78° E 16:11:53 10° N
ASTRO E2 3.5 16:06:40 10° SW 16:10:22 39° SSE 16:12:35 20° ESE
Cosmos 1689 Rocket 1.9 16:10:36 10° N 16:13:27 84° W 16:16:15 10° SSW
Okean O Rocket 4.0 16:09:49 10° SSW 16:13:33 26° W 16:17:17 10° NW
CSL-04 Rocket 4.3 16:13:09 10° SE 16:17:56 33° ENE 16:22:48 10° N
CZ-4 R/B 1.3 16:15:11 10° SSE 16:19:13 69° ENE 16:23:12 10° N
Cosmos 1812 Rocket 4.3 16:15:00 10° NNW 16:19:15 54° W 16:23:27 10° S
X-37B 2.9 16:17:53 10° NNW 16:19:18 13° NNE 16:19:18 13° NNE
Delta 2 Rocket 3.9 16:19:29 10° SW 16:22:29 31° SSE 16:23:18 27° ESE
Cosmos 1655 Rocket 4.1 16:16:40 10° SSE 16:22:39 52° E 16:28:38 10° NNE
Iridium 4 Rocket 3.7 16:19:51 10° N 16:24:58 70° W 16:29:37 10° S
Okean-O 2.5 16:20:43 10° SSE 16:25:06 69° ENE 16:29:31 10° N
Cosmos 2278 Rocket 3.5 16:21:16 10° SW 16:26:34 40° WNW 16:31:54 10° N
S3M 4.2 16:22:45 10° N 16:28:31 43° E 16:34:19 10° SSE
CZ-2C R/B 3.7 16:24:43 10° S 16:30:00 62° W 16:35:35 10° NNW
ERS-2 3.7 16:27:39 10° N 16:30:59 35° WNW 16:34:17 10° SW
Cosmos 1346 Rocket 4.1 16:28:36 10° SSW 16:32:18 41° W 16:36:03 10° N
Cosmos 2292 Rocket 3.7 16:26:51 10° S 16:32:32 81° E 16:36:46 10° N
Cosmos 1953 Rocket 3.6 16:29:35 10° S 16:33:56 79° W 16:38:16 10° N
Cosmos 1408 3.9 16:36:51 10° SSE 16:38:34 25° SSE 16:38:34 25° SSE
Cosmos 44 Rocket 4.1 16:35:38 10° SW 16:40:19 50° WNW 16:44:33 14° NNE
Cosmos 1892 2.4 16:37:29 10° S 16:41:13 75° E 16:42:18 44° NNE
ARGOS 3.0 16:37:51 10° SSE 16:43:08 66° ENE 16:48:28 10° N
Hubble Space Telescope 3.5 16:44:29 10° SW 16:46:11 12° SSW 16:47:52 10° S
Lacrosse 5 rocket 2.9 16:45:59 10° S 16:48:44 26° SSE 16:48:44 26° SSE
CZ-2C R/B 2.8 16:55:19 10° N 17:00:56 79° WNW 17:06:32 10° SSW
DMSP B5D2-2 3.9 17:05:06 53° NNE 17:06:20 79° ESE 17:11:35 10° S
Cosmos 2297 3.7 17:01:17 10° SSW 17:06:56 79° WNW 17:09:22 36° NNE
Skynet4D Del rocket 4.3 17:08:33 10° WSW 17:14:31 43° S 17:14:49 43° SSE
Sakura Rocket 3.9 17:09:14 10° W 17:17:00 68° S 17:17:42 63° SE
H-2A R/B 3.8 17:18:15 10° SSW 17:22:38 31° W 17:27:09 10° NW
Cosmos 1833 Rocket 4.3 17:26:45 10° NW 17:31:40 32° WSW 17:36:33 10° SSW
USA 267 3.1 17:32:30 73° SSE 17:32:30 73° SSE 17:38:42 10° SW
CZ-3B R/B 3.9 17:36:20 10° NW 17:41:18 80° SW 18:05:57 10° SSE
Cosmos 1943 Rocket 2.8 17:37:22 10° SSW 17:41:41 50° WSW 17:41:41 50° WSW
Cosmos 2082 Rocket 3.2 17:46:17 10° NW 17:51:39 43° WSW 17:51:40 43° WSW
Cosmos 2369 Rocket 4.3 17:53:37 10° SSW 17:54:52 17° SSW 17:54:52 17° SSW
ATLAS 2A CENTAUR R/B 4.0 17:42:05 10° WSW 18:11:52 57° S 18:12:01 57° S
Milstar 3 4.5 18:40:52 10° WSW 18:44:24 27° WSW 18:44:24 27° WSW
